Location: Canyon Rim
(40.8777°N, 111.8641°W)
Time: 09:05:54
(UTC+00:00)

M-CUBED/EXP-1 PRIME - Visible Passes

Search period start: 16 June 2021 00:00
Search period end: 26 June 2021 00:00
Orbit: 427 x 659 km, 101.7° (Epoch: 15 June)

Date Brightness Start Highest point End Pass type
(mag) Time Alt. Az. Time Alt. Az. Time Alt. Az.
16 Jun ? 07:38:32 10° NE 07:39:55 17° ENE 07:39:55 17° ENE visible
16 Jun ? 09:12:34 10° N 09:15:24 24° WNW 09:15:29 24° WNW visible
17 Jun ? 07:32:25 10° ENE 07:33:26 14° ENE 07:33:26 14° ENE visible
17 Jun ? 09:05:55 10° N 09:09:00 30° WNW 09:09:00 30° WNW visible
18 Jun ? 07:26:27 10° ENE 07:26:55 11° ENE 07:26:55 11° ENE visible
18 Jun ? 08:59:18 10° N 09:02:30 38° WNW 09:02:30 38° WNW visible
19 Jun ? 08:52:43 10° N 08:56:00 49° WNW 08:56:00 49° WNW visible
20 Jun ? 08:46:12 10° N 08:49:29 62° NW 08:49:29 62° NW visible
21 Jun ? 08:39:41 10° NNE 08:42:59 72° N 08:42:59 72° N visible
22 Jun ? 08:33:12 10° NNE 08:36:28 66° NE 08:36:28 66° NE visible
23 Jun ? 08:26:46 10° NNE 08:29:57 53° ENE 08:29:57 53° ENE visible
23 Jun ? 10:03:04 10° NW 10:04:14 11° WNW 10:05:23 10° WNW visible
24 Jun ? 08:20:21 10° NNE 08:23:25 42° ENE 08:23:25 42° ENE visible
24 Jun ? 09:55:50 10° NNW 09:57:51 14° WNW 09:58:59 13° W visible
25 Jun ? 08:13:59 10° NE 08:16:54 34° E 08:16:54 34° E visible
25 Jun ? 09:48:55 10° NNW 09:51:27 17° WNW 09:52:28 16° W visible
